Skip Page Navigation
NASA JPL Caltech
NASA Logo - Jet Propulsion Laboratory + View the NASA Portal
+ Center for Near-Earth Object Studies
JPL Home Earth Solar System Stars & Galaxies Technology
JPL Solar System Dynamics
BODIES ORBITS EPHEMERIDES TOOLS PHYSICAL DATA DISCOVERY FAQ SITE MAP
IMPORTANT: The SSD Announcement email list is now available. Major changes are coming in the near future, including possible hostname and/or URL changes. To be notified of such changes, subscribe to this email list.

Please visit this page for more details.


JPL Small-Body Database Browser
Search: [ help ]  
351750 (2006 DH125)
Classification: Main-belt Asteroid          SPK-ID: 2351750
Ephemeris | Orbit Diagram | Orbital Elements | Mission Design | Physical Parameters | Discovery Circumstances | Close-Approach Data ]

[ show orbit diagram ]
Orbital Elements at Epoch 2458600.5 (2019-Apr-27.0) TDB
Reference: JPL 6 (heliocentric ecliptic J2000)
 Element Value Uncertainty (1-sigma)   Units 
e .1626664680173815 8.4375e-08  
a 2.362820191399146 2.9799e-08 au
q 1.978468576304094 2.0879e-07 au
i 1.559925764726112 1.0043e-05 deg
node 229.0623046168917 0.00051224 deg
peri 196.2584126685552 0.00051897 deg
M 294.873459443436 8.7803e-05 deg
tp 2458840.493757765472
(2019-Dec-22.99375777)
0.0003271 TDB
period 1326.613575006818
3.63
2.5096e-05
6.871e-08
d
yr
n .2713676437376648 5.1336e-09 deg/d
Q 2.747171806494199 3.4647e-08 au
  Orbit Determination Parameters
   # obs. used (total)      91  
   data-arc span      8086 days (22.14 yr)  
   first obs. used      1995-02-08  
   last obs. used      2017-03-30  
   planetary ephem.      DE431  
   SB-pert. ephem.      SB431-N16  
   condition code      0  
   norm. resid. RMS      .62034  
   source      ORB  
   producer      Otto Matic  
   solution date      2017-Apr-10 07:34:45  

Additional Information
 Earth MOID = .991792 au 
 Jupiter MOID = 2.54754 au 
 T_jup = 3.531 
[ show covariance matrix ]

Ephemeris | Orbit Diagram | Orbital Elements | Mission Design | Physical Parameters | Discovery Circumstances | Close-Approach Data ]

Physical Parameter Table
Parameter Symbol Value Units Sigma Reference Notes
absolute magnitude H 18.1   n/a MPO408488  

351750 (2006 DH125)          Discovered 2006-Feb-25 by Spacewatch at Kitt Peak
Reference: 20130127/Numbers.arcLast Updated: 2013-01-31

[ show close-approach data ]
Alternate Designations
 2006 DH125 = 2008 SC121 
Ephemeris | Orbit Diagram | Orbital Elements | Mission Design | Physical Parameters | Discovery Circumstances | Close-Approach Data ]
ABOUT SSD CREDITS/AWARDS PRIVACY/COPYRIGHT GLOSSARY LINKS
FirstGov
(server date/time)  
NASA Home Page
Site Manager:   Ryan S. Park
Webmaster  Alan B. Chamberlin